TimeMDT,TemperatureF,Dew PointF,Humidity,Sea Level PressureIn,VisibilityMPH,Wind Direction,Wind SpeedMPH,Gust SpeedMPH,PrecipitationIn,Events,Conditions,WindDirDegrees,DateUTC
12:15 AM,66.2,33.8,30,30.18,5.0,NNW,13.8,-,N/A,,Haze,330,2013-08-19 06:15:00
12:35 AM,66.2,33.8,30,30.18,5.0,NW,11.5,-,N/A,,Haze,320,2013-08-19 06:35:00
12:55 AM,64.4,33.8,32,30.18,5.0,NNW,12.7,-,N/A,,Haze,340,2013-08-19 06:55:00
1:15 AM,64.4,33.8,32,30.18,5.0,NNW,13.8,-,N/A,,Haze,340,2013-08-19 07:15:00
1:35 AM,64.4,33.8,32,30.18,5.0,NW,13.8,-,N/A,,Haze,320,2013-08-19 07:35:00
1:55 AM,62.6,33.8,34,30.19,4.0,WNW,10.4,-,N/A,,Haze,300,2013-08-19 07:55:00
2:15 AM,62.6,33.8,34,30.19,4.0,WNW,10.4,-,N/A,,Haze,290,2013-08-19 08:15:00
2:35 AM,62.6,33.8,34,30.19,4.0,WNW,10.4,-,N/A,,Haze,290,2013-08-19 08:35:00
2:55 AM,62.6,33.8,34,30.19,3.0,WNW,10.4,-,N/A,,Haze,300,2013-08-19 08:55:00
3:15 AM,62.6,33.8,34,30.19,3.0,NW,10.4,-,N/A,,Haze,310,2013-08-19 09:15:00
3:35 AM,60.8,33.8,36,30.19,3.0,WNW,9.2,-,N/A,,Haze,290,2013-08-19 09:35:00
3:55 AM,62.6,33.8,34,30.19,3.0,NNW,11.5,-,N/A,,Haze,330,2013-08-19 09:55:00
4:15 AM,60.8,33.8,36,30.19,3.0,WNW,9.2,-,N/A,,Haze,290,2013-08-19 10:15:00
4:35 AM,62.6,33.8,34,30.19,2.5,North,12.7,-,N/A,,Haze,360,2013-08-19 10:35:00
4:55 AM,60.8,33.8,36,30.19,3.0,NW,5.8,-,N/A,,Haze,310,2013-08-19 10:55:00
5:15 AM,60.8,33.8,36,30.20,2.5,NW,9.2,-,N/A,,Haze,320,2013-08-19 11:15:00
5:35 AM,59.0,33.8,39,30.19,2.0,NW,11.5,-,N/A,,Haze,320,2013-08-19 11:35:00
5:55 AM,59.0,33.8,39,30.19,2.0,NW,11.5,-,N/A,,Haze,310,2013-08-19 11:55:00
6:15 AM,59.0,33.8,39,30.20,1.8,NW,11.5,-,N/A,,Haze,310,2013-08-19 12:15:00
6:35 AM,59.0,33.8,39,30.20,2.0,WNW,12.7,17.3,N/A,,Haze,300,2013-08-19 12:35:00
6:47 AM,59.0,35.6,42,30.21,2.0,WNW,6.9,-,N/A,,Smoke,300,2013-08-19 12:47:00
6:55 AM,59.0,33.8,39,30.20,1.8,NW,13.8,-,N/A,,Haze,310,2013-08-19 12:55:00
7:47 AM,59.0,35.6,42,30.21,1.0,WNW,12.7,19.6,N/A,,Smoke,290,2013-08-19 13:47:00
8:47 AM,62.6,37.4,39,30.21,1.0,WNW,12.7,-,N/A,,Smoke,290,2013-08-19 14:47:00
9:47 AM,69.8,37.4,31,30.20,1.0,NW,11.5,-,N/A,,Smoke,310,2013-08-19 15:47:00
10:47 AM,71.6,48.2,43,30.21,1.0,SSE,13.8,-,N/A,,Smoke,150,2013-08-19 16:47:00
11:47 AM,80.6,39.2,23,30.21,3.0,ESE,13.8,19.6,N/A,,Smoke,110,2013-08-19 17:47:00
12:47 PM,84.2,42.8,23,30.19,5.0,East,15.0,-,N/A,,Smoke,100,2013-08-19 18:47:00
1:47 PM,86.0,42.8,22,30.16,7.0,ESE,11.5,17.3,N/A,,Smoke,110,2013-08-19 19:47:00
2:47 PM,87.8,42.8,21,30.14,7.0,SSW,12.7,-,N/A,,Smoke,210,2013-08-19 20:47:00
3:55 PM,87.8,42.8,21,30.12,7.0,SSW,9.2,18.4,N/A,,Smoke,210,2013-08-19 21:55:00
4:55 PM,87.8,39.2,18,30.10,7.0,SSW,8.1,19.6,N/A,,Smoke,210,2013-08-19 22:55:00
5:50 PM,86.0,39.2,19,30.10,7.0,SW,8.1,24.2,N/A,,Smoke,230,2013-08-19 23:50:00
6:47 PM,86.0,41.0,20,30.09,7.0,SSW,13.8,-,N/A,,Smoke,210,2013-08-20 00:47:00
7:47 PM,84.2,39.2,20,30.09,7.0,SW,10.4,-,N/A,,Smoke,220,2013-08-20 01:47:00
8:50 PM,82.4,37.4,20,30.09,7.0,SW,9.2,-,N/A,,Smoke,220,2013-08-20 02:50:00
9:50 PM,77.0,41.0,28,30.11,7.0,West,4.6,-,N/A,,Smoke,280,2013-08-20 03:50:00
10:47 PM,71.6,39.2,31,30.12,7.0,West,4.6,-,N/A,,Smoke,280,2013-08-20 04:47:00
11:15 PM,68.0,41.0,37,30.12,10.0,WNW,3.5,-,N/A,,Clear,290,2013-08-20 05:15:00
11:35 PM,68.0,37.4,33,30.13,10.0,NNW,5.8,-,N/A,,Clear,340,2013-08-20 05:35:00
11:55 PM,69.8,37.4,31,30.13,10.0,NW,8.1,-,N/A,,Clear,320,2013-08-20 05:55:00